Demo 6
Misión y Visión

La misión es proporcionar información fiable a la navegación aérea, contribuyendo a la seguridad, regularidad y eficiencia de la Navegación Aérea Internacional

La visión es contribuir sustancialmente al desarrollo de conocimientos y a la utilización de la meteorología aeronáutica a nivel nacional e internacional, mediante la innovación y la coparticipación con sectores sociales y productivos de la sociedad.

 
  Inicio
  Metar
  Taf
  Wintemp
  SIGMET
  Avisos
  Pronósticos
  Carpeta Meteorologica
  Imágenes Satelitales
  Climatología Aeronáutica
   
  ¿Quienes Somos?
  Contacto
  Eventos
Taf

 

IMÁGENES DEL AEROPUERTO
(EN CONSTRUCCION)

 

PRONOSTICO DE AERÓDROMO
TAF / PROYECCION CLIMATICA
MES DE JULIO

 

AEROPUERTO ENRIQUE MALEK:

TAF MPDA 251100Z 2512/2524 21007KT 9999 SCT018 TEMPO 2513/2517 02006KT=


TAF:

TAF MPSM 251100Z 2512/2618 33006KT 9999 SCT018 TEMPO 2518/2522 16005KT TEMPO 2604/2608 00000KT=

 

AEROPUERTO PANAMA PACIFICO:

hola



TAF:



AEROPUERTO MARCOS A. GELABERT:

TAF MPMG 251100Z 2512/2524 36006KT 9999 SCT018 TEMPO 2518/2522 18007KT=



TAF:



AEROPUERTO INTL. DE TOCUMEN:

TAF MPTO 251100Z 2512/2618 34006KT 9999 SCT018 TEMPO 2517/2521 19007KT TEMPO 2604/2608 VRB02KT=



TAF:

TAF MPPA 251100Z 2512/2618 02008KT 9999 SCT018 TEMPO 2518/2522 18006KT TEMPO 2605/2609 33005KT=


 
 

Found

The document has moved here.